Location: ??
(31.9467°N, 34.8903°E)
Time: 17:37:06
(UTC+00:00)

ATLAS 2AS CENTAUR R/B - Pass Details

Date: 29 October 2020
Orbit: 939 x 1273 km, 63.7° (Epoch: 23 November)

Event Time Altitude Azimuth Distance (km) Brightness Sun altitude
Rises 16:31:11 0° 342° (NNW) 4,103 5.9 -21.3°
Reaches altitude 10° 16:35:02 10° 360° (N) 3,076 5.1 -22.1°
Enters shadow 16:38:50 18° 31° (NNE) 2,445 4.3 -22.9°
